Tracking 18945 objects as of 20-Jan-2018
HD Live streaming from Space Station
objects crossing your sky now

FLOCK 2K 34

Track FLOCK 2K 34 now!
10-day predictions
FLOCK 2K 34 is classified as:


NORAD ID: 42878
Int'l Code: 2017-042BF
Perigee: 459.7 km
Apogee: 474.4 km
Inclination: 97.0 °
Period: 93.8 minutes
Semi major axis: 6838 km
RCS: Unknown
Launch date: July 14, 2017
Source: United States (US)
Launch site: TYURATAM MISSILE AND SPACE COMPLEX (TTMTR)
aabbcc
Your satellite tracking list
Your tracking list is empty




NASA's NSSDC Master Catalog

Two Line Element Set (TLE):
1 42878U 17042BF  18019.68949762 +.00007070 +00000-0 +20774-3 0  9990
2 42878 096.9940 283.8285 0010737 283.3301 076.6746 15.35350119028843
Source of the keplerian elements: AFSPC